This is the latest recevied weather packets stored in our database for station/object IW2LSY-11. If no packets are shown the sender has not sent any weather packets the latest 10 day(s).
| Time | Temp. | Humidity | Pressure | Rain* | Wind** | Luminosity | Snow |
|---|---|---|---|---|---|---|---|
| 1777735214 | 25° C | 28% | 1019.6 hPa | - | - | 508 W/m² | - |
| 1777734615 | 25° C | 27% | 1019.7 hPa | - | - | 510 W/m² | - |
| 1777734014 | 23.89° C | 28% | 1019.8 hPa | - | - | 509 W/m² | - |
| 1777733414 | 24.44° C | 28% | 1019.8 hPa | - | - | 510 W/m² | - |
| 1777732815 | 25° C | 28% | 1020 hPa | - | - | 511 W/m² | - |
| 1777732204 | 24.44° C | 27% | 1020.2 hPa | - | - | 511 W/m² | - |
| 1777731604 | 25° C | 27% | 1020.3 hPa | - | - | 512 W/m² | - |
| 1777731004 | 25° C | 27% | 1020.3 hPa | - | - | 515 W/m² | - |
| 1777730404 | 25.56° C | 27% | 1020.5 hPa | - | - | 515 W/m² | - |
| 1777729805 | 25° C | 27% | 1020.7 hPa | - | - | 515 W/m² | - |
| 1777729205 | 24.44° C | 28% | 1020.9 hPa | - | - | 513 W/m² | - |
| 1777728605 | 24.44° C | 28% | 1021 hPa | - | - | 511 W/m² | - |
| 1777728005 | 24.44° C | 28% | 1021.2 hPa | - | - | 513 W/m² | - |
| 1777727404 | 24.44° C | 27% | 1021.3 hPa | - | - | 511 W/m² | - |
| 1777726805 | 23.89° C | 29% | 1021.5 hPa | - | - | 509 W/m² | - |
| 1777726206 | 24.44° C | 29% | 1021.5 hPa | - | - | 507 W/m² | - |
| 1777725606 | 23.89° C | 28% | 1021.7 hPa | - | - | 505 W/m² | - |
| 1777725007 | 23.89° C | 29% | 1021.8 hPa | - | - | 500 W/m² | - |
| 1777724407 | 23.89° C | 29% | 1022 hPa | - | - | 500 W/m² | - |
| 1777723807 | 24.44° C | 29% | 1022.2 hPa | - | - | 494 W/m² | - |
| 1777723208 | 23.33° C | 30% | 1022.4 hPa | - | - | 493 W/m² | - |
| 1777722608 | 23.89° C | 30% | 1022.5 hPa | - | - | 488 W/m² | - |
| 1777722009 | 23.33° C | 29% | 1022.7 hPa | - | - | 483 W/m² | - |
| 1777721409 | 22.78° C | 29% | 1022.9 hPa | - | - | 478 W/m² | - |
| 1777720810 | 22.78° C | 29% | 1023.1 hPa | - | - | 476 W/m² | - |
* Rain since midnight (hover to see other rain measurements)
** Current wind speed in m/s (hover to see current wind gust speed)